{"data":{"norad_id":66964,"epoch":"2026-09-20T08:15:39.953088Z","epoch_age_seconds":94712,"freshness":"FRESH","line1":"1 66964U 25288F   26263.34421242  .00010289  00000+0  38287-3 0  9997","line2":"2 66964  42.9993   4.4638 0001046 249.7937 110.2802 15.27582538 45050","mean_motion":15.27582538,"eccentricity":0.0001046,"inclination_deg":42.9993,"raan_deg":4.4638,"arg_perigee_deg":249.7937,"mean_anomaly_deg":110.2802,"bstar":0.00038287,"rev_number":4505,"period_min":94.266592094286,"perigee_km":482.32381709442,"apogee_km":483.75917563585,"semimajor_km":6861.1784963651,"source":"CELESTRAK","updated_at":"2026-09-21T09:00:36.063005Z"}}